This demonstration page uses our WeatherBlox Daily Observations layout. Learn more.

Left ArrowRight Arrow

Hourly Observations for April 17, 2017

Temp ( °F °C ) Dew Point ( °F °C ) Humidity (%) Winds ( mph kmh ) Pressure ( in mb ) Visibility ( mi km ) Precip ( " mm )
12:59 am 00:59 Partly Cloudy 70 21.1 53 11.7 55 55 SW 12 19 30.07 1018 10 16 0.00 0.00
1:59 am 01:59 Mostly Cloudy 70 21.1 55 12.8 59 59 SW 14 22 30.05 1018 10 16 0.00 0.00
2:59 am 02:59 Partly Cloudy 69 20.6 56 13.3 63 63 SW 10 17 30.03 1017 10 16 0.00 0.00
3:59 am 03:59 Mostly Clear 68 20 57 13.9 68 68 SW 12 19 30.02 1017 10 16 0.00 0.00
4:59 am 04:59 Partly Cloudy 68 20 58 14.4 70 70 SW 12 19 30.03 1017 10 16 0.00 0.00
5:59 am 05:59 Mostly Cloudy 68 20 58 14.4 70 70 SW 8 13 30.03 1017 10 16 0.00 0.00
6:59 am 06:59 Mostly Cloudy 67 19.4 58 14.4 73 73 SW 9 15 30.05 1018 8 13 0.00 0.00
7:59 am 07:59 Partly Cloudy 68 20 58 14.4 70 70 SW 14 22 30.06 1018 9 14 0.00 0.00
8:59 am 08:59 Partly Cloudy 70 21.1 58 14.4 66 66 WSW 10 17 30.06 1018 9 14 0.00 0.00
9:59 am 09:59 Partly Cloudy 73 22.8 58 14.4 59 59 SW 14 22 30.05 1018 9 14 0.00 0.00
10:59 am 10:59 Mostly Cloudy 76 24.4 57 13.9 52 52 W 16 26 30.04 1017 9 14 0.00 0.00
11:59 am 11:59 Partly Cloudy 78 25.6 58 14.4 50 50 W 12 19 30.04 1017 8 13 0.00 0.00
12:59 pm 12:59 Partly Cloudy 81 27.2 58 14.4 45 45 WSW 10 17 30.03 1017 10 16 0.00 0.00
1:59 pm 13:59 Mostly Sunny 84 28.9 58 14.4 41 41 SW 13 20 30.01 1016 10 16 0.00 0.00
2:59 pm 14:59 Mostly Cloudy 86 30 57 13.9 37 37 WSW 13 20 29.98 1015 10 16 0.00 0.00
3:59 pm 15:59 Mostly Cloudy with Thunderstorms 70 21.1 59 15 68 68 N 22 35 30.01 1016 6 10 0.00 0.00
4:31 pm 16:31 Mostly Cloudy with Haze 66 18.9 60 15.6 81 81 N 20 31 30.00 1016 6 10 0.00 0.00
4:59 pm 16:59 Mostly Cloudy 66 18.9 61 16.1 84 84 NNE 17 28 30.01 1016 7 11 0.01 0.25
5:59 pm 17:59 Mostly Cloudy 65 18.3 59 15 81 81 N 12 19 30.03 1017 8 13 0.00 0.00
6:59 pm 18:59 Mostly Cloudy with Rain 63 17.2 60 15.6 90 90 N 8 13 30.06 1018 4 6 0.08 2.03
7:28 pm 19:28 Cloudy with Thunderstorms 63 17.2 61 16.1 93 93 ENE 5 7 30.09 1019 3 5 0.15 3.81
7:59 pm 19:59 Cloudy with Thunderstorms 63 17.2 61 16.1 93 93 NNE 8 13 30.08 1019 4 6 0.23 5.84
8:20 pm 20:20 Cloudy with Light Rain 62 16.7 60 15.6 93 93 NNE 10 17 30.09 1019 5 8 0.04 1.02
8:59 pm 20:59 Cloudy 62 16.7 59 15 90 90 NNE 10 17 30.10 1019 9 14 0.04 1.02
9:59 pm 21:59 Cloudy with Light Rain 62 16.7 58 14.4 86 86 NNE 10 17 30.12 1020 7 11 0.02 0.51
10:59 pm 22:59 Cloudy with Mist and Fog 63 17.2 61 16.1 93 93 NE 9 15 30.13 1020 5 8 0.01 0.25
11:59 pm 23:59 Cloudy 61 16.1 58 14.4 90 90 ENE 9 15 30.12 1020 9 14 0.00 0.00

Powered by AerisWeather